Regional Weather Roundup
Issued by NWS

Home | Current Version | Previous Version | Graphics & Text | Print | Product List | Glossary On
Versions: 1 2 3 4 5 6 7 8 9 10 11 12 13 14 15 16 17 18 19 20 21 22 23 24 25 26 27 28 29 30 31 32 33 34 35 36 37 38 39 40 41 42 43 44 45 46 47 48 49 50
487
ASUS43 KDMX 201101
RWRIA

WEATHER ROUNDUP FOR IOWA
NATIONAL WEATHER SERVICE DES MOINES IA
600 AM CDT WED SEP 20 2017

NOTE: "FAIR" INDICATES FEW OR NO CLOUDS BELOW 12,000 FEET WITH NO
SIGNIFICANT WEATHER AND/OR OBSTRUCTIONS TO VISIBILITY.

* - THESE STATIONS ARE NOT NWS STATIONS...THUS NOT UNDER NWS
QUALITY CONTROL.  THEY ALSO DO NOT REPORT WEATHER SUCH
AS PRECIPITATION OR FOG.

IAZ001>003-012>014-020>022-031>034-043>046-201200-
   NORTHWEST IOWA

CITY           SKY/WX    TMP DP  RH WIND       PRES   REMARKS
CARROLL *      CLOUDY    72  66  83 NW5       29.67R
CHEROKEE *     CLEAR     58  58 100 SW3       29.69R
DENISON *      CLOUDY    66  61  82 N6        29.71R
LE MARS *      MOCLDY    61  57  88 NW7       29.73R
ORANGE CITY *  CLOUDY    61  61 100 W7        29.73R
SHELDON *      MOCLDY    59  55  88 W10       29.70R
SIOUX CITY     MOCLDY    59  57  93 NW7       29.73R
SPENCER        PTCLDY    57  56  96 S3        29.67R
STORM LAKE *   MOCLDY    61  57  88 NE3       29.69R
$$

IAZ055>058-069>071-079>083-090>094-201200-
   SOUTHWEST IOWA

CITY           SKY/WX    TMP DP  RH WIND       PRES   REMARKS
ATLANTIC *     PTCLDY    73  70  88 S8        29.67S
AUDUBON *      PTCLDY    72  68  88 S7        29.67S
CLARINDA *     CLEAR     73  70  88 S7        29.71S
COUNCIL BLFS * CLOUDY    73  73 100 NW7       29.67R
CRESTON *      CLEAR     70 -38   1 S8        29.73S
HARLAN  *      CLOUDY    73  72  94 W8        29.71R
LAMONI         PTCLDY    71  68  90 S9        29.73R
RED OAK *      CLEAR     72  70  94 S6        29.67S
SHENANDOAH *   CLEAR     73  70  88 S9        29.67S
$$

IAZ047>049-059>061-072>074-084-201200-
   CENTRAL IOWA

CITY           SKY/WX    TMP DP  RH WIND       PRES   REMARKS
AMES           CLEAR     72  69  90 S10       29.68S
ANKENY *       CLEAR     73  68  83 S8        29.70S
BOONE *        CLEAR     73  68  83 S9G16     29.67S
CHARITON *     CLEAR     72  68  88 S12       29.73R
DES MOINES     PTCLDY    74  68  81 S9        29.70R
GRINNELL*      CLEAR     69  65  85 S7        29.74R
KNOXVILLE *    MOCLDY    73  66  78 SW14G21   29.72R
MARSHALLTOWN   PTCLDY    72  67  84 S12       29.70R
NEWTON *       CLEAR     70  66  88 S7        29.73R
PELLA *        CLEAR     71  65  81 S6        29.73R
PERRY *          N/A     73  70  91 S9        29.67S
$$

IAZ004>006-015-016-023>025-035-036-201200-
   NORTH CENTRAL IOWA

CITY           SKY/WX    TMP DP  RH WIND       PRES   REMARKS
ALGONA *       CLOUDY    66  66 100 NW5       29.66R
CLARION *      CLOUDY    70  70 100 S8        29.67F
ESTHERVILLE    PTCLDY    58  58 100 S3        29.66R
FORT DODGE *   CLEAR     73  68  84 S7        29.66S
MASON CITY     PTCLDY    70  66  87 S9        29.69R
FOREST CITY *  CLOUDY    70  68  94 S8        29.67S
IOWA FALLS *     N/A     70  67  88 S9        29.70R
$$

IAZ007>011-017>019-026>030-037>042-050>054-066-201200-
   NORTHEAST IOWA

CITY           SKY/WX    TMP DP  RH WIND       PRES   REMARKS
CEDAR RAPIDS   CLEAR     69  65  86 S10G17    29.75F
CHARLES CITY * CLOUDY    72  68  88 S13G18    29.71R
CLINTON *      CLEAR     67  64  90 SE13      29.83F
DECORAH *      MOCLDY    68  64  88 S12G20    29.72S
DUBUQUE        CLEAR     66  63  90 SE16      29.80F
MONTICELLO *   CLEAR     66  64  94 SE13      29.77S
OELWEIN *      PTCLDY    68  66  94 SE12G17   29.75R
WATERLOO       CLEAR     69  64  84 SE17      29.70R
$$

IAZ064-065-067-068-078-201200-
   EAST CENTRAL IOWA

CITY           SKY/WX    TMP DP  RH WIND       PRES   REMARKS
DAVENPORT      CLEAR     68  64  87 SE9       29.83F
IOWA CITY      CLEAR     69  65  86 SE9       29.78F
MUSCATINE *    CLEAR     70  64  83 S8        29.80S
QUAD CITIES    CLEAR     69  63  81 SE6       29.82F
$$

IAZ062-063-075>077-085>089-095>099-201200-
   SOUTHEAST IOWA

CITY           SKY/WX    TMP DP  RH WIND       PRES   REMARKS
BURLINGTON     CLEAR     71  67  87 S10       29.81S
FAIRFIELD *    PTCLDY    72  64  78 S13       29.76F
FORT MADISON * CLEAR     70  66  88 S7        29.82S
KEOKUK *       CLEAR     68  66  94 SE6       29.81R
OSKALOOSA *      N/A     68  65  89 SE6       29.75R
OTTUMWA        CLEAR     72  66  81 S10       29.74S
WASHINGTON *   CLEAR     68  68 100 SE9       29.79S
$$

ABBREVIATIONS USED IN REMARKS
   TC - TEMPERATURES IN CELSIUS
  WCI - WIND CHILL INDEX
   HX - HEAT INDEX
  VSB - VISIBILITY
$$





USA.gov is the U.S. government's official web portal to all federal, state and local government web resources and services.